sat.trackr.live / text

‹ back to catalog

ONEWEB-0499

NORAD 54117 · 2022-138E

PAYLOAD ACTIVE UNKNOWN

§ Identity

Operator
Country
UK
Launch date
2022-10-22
Launch site
SRILR
Launch vehicle
Mass (kg)
RCS (m²)

Purposes: comms

External: N2YO · Heavens-Above · Gunter

§ Orbital elements

Epoch: 2026-05-25T03:52:17.890752Z

Period
109.11 min
Inclination
87.9149°
Eccentricity
0.0001772
Mean motion
13.19724933 rev/d
Perigee alt
1,184.4 km
Apogee alt
1,187.1 km
Semi-major
7,563.9 km
B*
9.0141e-5
RAAN
309.5627°
Arg perigee
85.3922°
Mean anomaly
274.7413°
Rev number
17,378

§ Raw data

ONEWEB-04991 54117U 22138E   26145.16131818  .00000049  00000+0  90141-4 0  99922 54117  87.9149 309.5627 0001772  85.3922 274.7413 13.19724933173782

JSON: /api/v1/satellites/54117 · /tle

For live sub-satellite position, see the globe view (requires WebGL).

§ Visibility from observer

Set your observer location to see the next 7 days of passes ≥ 10°. The values pass through the URL so the page stays shareable.

No JS? Fill the form by hand. The geolocation button needs JavaScript.